[[{"header":{"parameterUnit":"m.s-1","parameterCategory":1,"la1":30.2992,"la2":30.254,"lo1":-89.0895,"lo2":-89.0443,"dy":0.0025,"dx":0.0025,"nx":19,"ny":19,"refTime":"2026-04-30T21:00:00:Z","depth":0,"parameterNumber":2,"parameterNumberName":"U-component_of_WINDS"},"data":[0,0,0,-1.8623,-1.8623,-1.8596,-1.8596,-1.8599,-1.8599,0,0,0,0,0,0,0,0,0,0,0,-1.8652,-1.8653,-1.8623,-1.8623,-1.8596,-1.8596,-1.8599,-1.8599,0,0,0,0,0,0,0,0,0,0,0,-1.8651,-1.8652,-1.8653,-1.8623,-1.8596,-1.8596,-1.8598,-1.8606,0,0,0,0,0,0,0,0,0,0,-1.8625,-1.8673,-1.8652,-1.8653,-1.8623,-1.8596,-1.8596,-1.8605,-1.8605,-1.8626,0,-1.8649,0,-1.8624,-1.8601,-1.8602,0,0,0,-1.8607,-1.8673,-1.8646,-1.8653,-1.8623,-1.8596,-1.8604,-1.8605,-1.8605,-1.8626,-1.8649,-1.8648,-1.8624,-1.8602,-1.8602,-1.8772,-1.8774,0,0,-1.8609,-1.8659,-1.8647,-1.8647,-1.8652,-1.8605,-1.8603,-1.8604,-1.8633,-1.8649,-1.8648,-1.8624,-1.8602,-1.8602,-1.8771,-1.8773,0,0,0,-1.8623,-1.8661,-1.8633,-1.8648,-1.8641,-1.8604,-1.8602,-1.8633,-1.862,-1.8647,-1.8625,-1.8602,-1.8603,-1.8769,-1.8772,-1.8896,0,0,0,-1.8623,-1.8669,-1.8635,-1.8665,-1.8641,-1.8636,-1.8632,-1.862,-1.8618,-1.8625,-1.8602,-1.8603,-1.8767,-1.877,-1.8889,-1.8948,0,0,0,-1.8646,-1.8671,-1.8674,-1.8668,-1.8658,-1.8635,-1.8621,-1.8618,-1.8605,-1.8602,-1.8603,-1.8766,-1.877,-1.8883,-1.8937,-1.9008,0,0,0,-1.8686,-1.8785,-1.8677,-1.878,-1.8659,-1.8712,-1.8621,-1.8658,-1.867,-1.8602,-1.8768,-1.8771,-1.8881,-1.893,-1.9002,-1.9078,-1.9114,0,0,-1.884,-1.8806,-1.8862,-1.8765,-1.885,-1.8712,-1.8815,-1.8779,-1.8733,-1.8762,-1.8766,-1.8891,-1.8936,-1.9007,-1.9297,-1.9326,0,0,0,-1.8928,-1.897,-1.8981,-1.8995,-1.8969,-1.8952,-1.8894,-1.8881,-1.8903,-1.8758,-1.8934,-1.8959,-1.8999,-1.9033,-1.9058,-1.9089,-1.8789,-1.8788,-1.8788,-1.9219,-1.9154,-1.9244,-1.9177,-1.9192,-1.9131,-1.9138,-1.9109,-1.904,-1.9083,-1.9092,-1.9276,-1.9318,-1.9336,-1.937,-1.9126,-1.9126,-1.9126,-1.9127,-1.944,-1.949,-1.9395,-1.9449,-1.9381,-1.9425,-1.9372,-1.9322,-1.9354,-1.9263,-1.9295,-1.9203,-1.937,-1.9396,-1.9136,-1.9134,-1.9133,-1.9132,-1.9131,-1.9625,-1.9637,-1.9619,-1.9632,-1.965,-1.9578,-1.9615,-1.9551,-1.9491,-1.9522,-1.9526,-1.9524,-1.9515,-1.9528,-1.9529,-1.9529,-1.953,-1.953,-1.9531,-1.9824,-1.9799,-1.9837,-1.9819,-1.982,-1.9813,-1.9754,-1.9753,-1.9737,-1.9688,-1.9687,-1.9616,-1.9397,-1.9345,-1.954,-1.9539,-1.9537,-1.9537,-1.9536,-2.0075,-2.0008,-2.0067,-2.0068,-2.0042,-2.0065,-1.9983,-1.9988,-1.9978,-1.9998,-1.9919,-1.9768,-1.9729,-1.9709,-1.9665,-1.9931,-1.9931,-1.9931,-1.9931,-2.0233,-2.0206,-2.0252,-2.0258,-2.0257,-2.0189,-2.0259,-2.0215,-2.0159,-2.015,-2.0101,-2.0037,-2.002,-1.9991,-1.9965,-1.9923,-2.0249,-2.025,-2.025,-2.0384,-2.0355,-2.0427,-2.037,-2.0345,-2.0326,-2.0391,-2.0403,-2.0325,-2.0262,-2.0141,-2.0128,-2.0024,-1.9993,-1.9929,-1.9889,-1.9811,0,0]},{"header":{"parameterUnit":"m.s-1","parameterCategory":1,"la1":30.2992,"la2":30.254,"lo1":-89.0895,"lo2":-89.0443,"dy":0.0025,"dx":0.0025,"nx":19,"ny":19,"refTime":"2026-04-30T21:00:00:Z","depth":0,"parameterNumber":3,"parameterNumberName":"V-component_of_WINDS"},"data":[0,0,0,1.7108,1.7111,1.7237,1.7238,1.7399,1.74,0,0,0,0,0,0,0,0,0,0,0,1.7071,1.7072,1.7108,1.7111,1.7237,1.7238,1.7398,1.74,0,0,0,0,0,0,0,0,0,0,0,1.7071,1.7072,1.7073,1.7112,1.7237,1.7238,1.7398,1.7303,0,0,0,0,0,0,0,0,0,0,1.718,1.7146,1.7072,1.7073,1.7112,1.7237,1.7238,1.7298,1.7309,1.7342,0,1.7371,0,1.7388,1.7411,1.7411,0,0,0,1.7111,1.7138,1.7172,1.7073,1.7114,1.7237,1.718,1.7304,1.7316,1.7355,1.7373,1.7379,1.7391,1.7412,1.7413,1.7604,1.7605,0,0,1.7104,1.7094,1.7163,1.7179,1.716,1.7176,1.7184,1.7311,1.733,1.7374,1.7383,1.7393,1.7413,1.7414,1.7603,1.7604,0,0,0,1.7084,1.7089,1.712,1.7173,1.7195,1.718,1.7189,1.7324,1.7335,1.7385,1.7395,1.7414,1.7416,1.7602,1.7604,1.7639,0,0,0,1.708,1.7077,1.7117,1.7112,1.7193,1.7261,1.7199,1.7326,1.7341,1.7395,1.7414,1.7417,1.7601,1.7603,1.7636,1.7658,0,0,0,1.7063,1.7075,1.7094,1.7111,1.7165,1.726,1.7278,1.733,1.7348,1.7412,1.7418,1.7601,1.7603,1.7633,1.7654,1.7706,0,0,0,1.7041,1.7123,1.7094,1.7189,1.7164,1.7281,1.7277,1.7365,1.7424,1.7415,1.7601,1.7603,1.7633,1.7651,1.7703,1.775,1.7768,0,0,1.7138,1.7134,1.7191,1.7169,1.7289,1.7262,1.7388,1.7451,1.7466,1.7557,1.7562,1.7637,1.7653,1.7706,1.7871,1.7886,0,0,0,1.7218,1.7259,1.7293,1.7349,1.74,1.7446,1.7491,1.7514,1.7593,1.7511,1.767,1.768,1.7712,1.7734,1.7746,1.7774,1.7613,1.7613,1.7613,1.7341,1.7357,1.7452,1.7483,1.7538,1.7584,1.763,1.767,1.7668,1.7706,1.7733,1.7832,1.7858,1.7867,1.7896,1.7758,1.7758,1.7759,1.7759,1.7486,1.7546,1.7544,1.7636,1.7652,1.7729,1.7777,1.7774,1.7848,1.7812,1.7841,1.7801,1.7883,1.7909,1.7762,1.7761,1.7761,1.776,1.776,1.7568,1.76,1.7628,1.7712,1.7774,1.7803,1.7875,1.7886,1.7897,1.7925,1.7956,1.7956,1.7957,1.7939,1.7939,1.794,1.794,1.794,1.794,1.7644,1.7674,1.7734,1.7795,1.7833,1.7885,1.7933,1.7971,1.8016,1.8018,1.8019,1.8015,1.7887,1.7856,1.7946,1.7945,1.7944,1.7944,1.7943,1.7786,1.7756,1.7848,1.7886,1.796,1.8022,1.8036,1.8112,1.8145,1.818,1.817,1.8074,1.807,1.8061,1.8035,1.8166,1.8166,1.8166,1.8166,1.7857,1.7856,1.7953,1.8014,1.8075,1.8097,1.8201,1.8239,1.8274,1.8295,1.8278,1.8244,1.8234,1.8236,1.8223,1.8199,1.8369,1.8369,1.8369,1.7945,1.7951,1.8037,1.8072,1.813,1.818,1.8279,1.8349,1.8382,1.8378,1.8313,1.8304,1.825,1.8231,1.8226,1.8204,1.8161,0,0]}]]